Tracking 22779 objects as of 10-Apr-2021
HD Live streaming from Space Station
objects crossing your sky now

ARIANE 5 R/B

Track ARIANE 5 R/B now!


NORAD ID: 40942
Int'l Code: 2015-054C
Perigee: 242.1 km
Apogee: 32,799.0 km
Inclination: 6.7 °
Period: 574.5 minutes
Semi major axis: 22891 km
RCS: Unknown
Launch date: September 30, 2015
Source: France (FR)
Launch site: FRENCH GUIANA (FRGUI)

Note: This is a ROCKET BODY
aabbcc
Your satellite tracking list
Your tracking list is empty




NASA's NSSDC Master Catalog

Two Line Element Set (TLE):
1 40942U 15054C   21099.46730567  .00001667  00000-0  28742-3 0  9999
2 40942   6.7041 325.4738 7111115 151.5461 279.5510  2.50662835 48481
Source of the keplerian elements: AFSPC